Kuchera_Ratio
0.0 0.0 0.0 0.0 0.0 0.0 0.0 0.0 0.0 0.0 0.0 0.0 0.0 0.0 0.0 0.0 0.0 0.0 0.0 0.0 0.0 0.0
0.0 0.0 0.0 0.0 0.0 0.0 0.0 0.0 0.0 0.0 0.0 0.0 0.0 0.0 0.0 0.0 0.0 0.0 0.0 0.0 0.0 0.0
0.0 0.0 0.0 0.0 0.0 0.0 0.0 0.0 0.0 0.0 0.0 0.0 0.0 0.0 0.0 0.0 0.0 0.0 0.0 0.0 0.0 0.0
0.1 0.5 0.8 0.4 0.0 0.0 0.0 0.0 0.0 0.0 0.0 0.0 0.0 0.0 0.0 0.0 0.0 0.0 0.0 0.0 0.0 0.0
0.2 1.2 1.8 2.0 1.2 0.0 0.0 0.0 0.0 0.0 0.0 0.0 0.0 0.0 0.0 0.0 0.0 0.0 0.0 0.0 0.0 0.0
0.1 1.1 1.9 2.3 3.0 3.2 2.9 0.2 0.0 0.0 0.0 0.0 0.0 0.0 0.0 0.0 0.0 0.0 0.0 0.0 0.0 0.0
0.8 1.8 2.4 3.5 4.5 5.0 5.6 5.8 5.5 4.3 1.9 0.0 0.0 0.0 0.0 0.0 0.0 0.0 0.0 0.0 0.0 0.0
1.0 1.7 2.5 3.7 4.9 5.5 5.8 6.2 6.4 6.1 5.1 4.0 0.2 0.0 0.6 1.8 3.0 2.6 0.4 0.0 0.0 0.0
1.6 2.2 3.2 4.2 5.1 5.7 6.5 6.8 6.6 6.6 6.1 5.0 0.8 0.0 0.0 0.0 4.3 3.2 2.6 3.3 3.1 1.1
2.5 3.3 3.9 4.4 5.4 7.1 7.7 7.9 7.8 7.5 6.6 5.6 4.1 0.0 0.0 0.0 4.5 5.7 5.9 5.8 5.7 3.6
2.3 3.3 3.9 4.6 5.7 7.1 8.0 8.6 8.5 8.0 7.1 6.0 3.5 0.0 0.0 0.0 6.3 6.4 6.6 5.5 5.3 5.1
2.6 3.8 4.4 5.4 6.7 7.8 9.0 9.0 8.7 8.3 7.5 6.9 5.6 0.0 0.0 4.5 7.3 7.9 8.2 6.7 6.2 3.7
3.8 5.1 5.6 6.3 7.3 8.9 9.8 9.9 9.5 9.0 8.6 4.8 6.8 1.5 0.0 5.2 7.7 9.0 9.7 9.0 8.7 1.8
4.0 5.4 6.1 6.9 8.1 9.8 10.3 10.4 10.3 10.5 10.0 9.3 9.0 7.7 0.0 0.0 7.4 8.3 9.6 10.1 10.0 9.1